EW4529 Weather Reports


time (UTC)temp
F
wind
direction
speed
knots
gust
knots
rain 1hr
in
rain 24hr
in
rain mn
in
humidity
%
barometer
mb
20260506211315 69 129 0.9 4.3 0.00 0.12 0.12 78 1007.5
20260506210310 69 122 0.9 3.5 0.00 0.12 0.12 78 1007.5
20260506205311 69 137 1.7 6.1 0.00 0.12 0.12 78 1007.5
20260506204314 69 134 0.0 1.7 0.00 0.12 0.12 78 1007.4
20260506203340 68 356 1.7 6.1 0.00 0.12 0.12 79 1007.2
20260506202340 68 172 0.9 7.0 0.00 0.12 0.12 78 1007.3
20260506201343 68 217 0.0 5.2 0.00 0.12 0.12 81 1007.3
20260506200320 67 64 1.7 5.2 0.00 0.12 0.12 81 1007.4
20260506195325 67 140 0.0 3.5 0.00 0.12 0.12 82 1007.6
20260506194324 66 258 0.0 3.5 0.00 0.12 0.12 83 1007.7
20260506193319 66 84 0.9 7.0 0.00 0.12 0.12 84 1007.8
20260506192317 65 212 0.0 3.5 0.00 0.12 0.12 85 1008.0
20260506191319 65 320 0.9 3.5 0.00 0.12 0.12 85 1008.0
20260506190315 65 275 1.7 6.1 0.00 0.12 0.12 85 1008.1
20260506185316 64 311 0.9 3.5 0.00 0.12 0.12 86 1008.0
20260506184316 64 127 0.9 4.3 0.00 0.12 0.12 87 1008.1
20260506183338 64 290 0.0 5.2 0.00 0.12 0.12 87 1008.3
20260506182314 64 249 0.9 9.6 0.00 0.12 0.12 88 1008.3
20260506181317 64 132 0.9 6.1 0.00 0.12 0.12 88 1008.3
20260506180337 63 131 0.9 9.6 0.00 0.12 0.12 88 1008.4
20260506175319 63 274 2.6 11.3 0.00 0.12 0.12 88 1008.4
20260506174320 63 32 0.9 7.0 0.01 0.12 0.12 89 1008.4
20260506173315 63 340 0.9 9.6 0.01 0.12 0.12 89 1008.5
20260506172321 63 346 0.9 5.2 0.02 0.12 0.12 88 1008.5
20260506171321 63 285 0.9 7.8 0.03 0.12 0.12 88 1008.7
20260506170316 64 157 0.9 7.0 0.05 0.12 0.12 89 1008.7
20260506165320 64 135 0.9 6.1 0.06 0.12 0.12 88 1008.7
20260506164313 65 102 0.9 7.0 0.06 0.11 0.11 90 1008.6
20260506163315 64 222 0.9 3.5 0.07 0.11 0.11 91 1008.8
20260506162312 63 112 0.9 3.5 0.08 0.10 0.10 90 1009.1
20260506161330 63 127 1.7 7.0 0.08 0.09 0.09 89 1009.5
20260506160322 63 290 0.0 3.5 0.07 0.07 0.07 88 1009.9
20260506155340 64 336 0.0 0.9 0.06 0.06 0.06 88 1010.0
20260506154321 64 139 0.0 3.5 0.05 0.05 0.05 86 1010.1
20260506153327 64 108 0.9 4.3 0.04 0.04 0.04 85 1010.1
20260506152322 65 142 0.0 5.2 0.02 0.02 0.02 83 1009.9
20260506151322 65 270 1.7 6.1 0.01 0.01 0.01 79 1009.9
20260506150319 66 174 0.0 3.5 0.00 0.00 0.00 77 1009.9
20260506145327 67 316 0.9 6.1 0.00 0.00 0.00 77 1009.7
20260506144318 67 167 0.0 4.3 0.00 0.00 0.00 77 1010.0
20260506143314 67 269 1.7 6.1 0.00 0.00 0.00 72 1010.1
20260506142333 68 98 0.9 4.3 0.00 0.00 0.00 70 1010.0
20260506141309 69 222 0.9 5.2 0.00 0.00 0.00 68 1009.9
20260506140320 69 133 1.7 6.1 0.00 0.00 0.00 66 1009.9
20260506135344 69 89 1.7 8.7 0.00 0.00 0.00 68 1009.8
20260506134316 68 220 1.7 7.0 0.00 0.00 0.00 69 1009.7
20260506133326 67 134 0.9 7.0 0.00 0.00 0.00 71 1009.8
20260506132323 67 108 0.9 5.2 0.00 0.00 0.00 71 1009.8
20260506131319 67 323 0.9 5.2 0.00 0.00 0.00 72 1009.8
20260506130339 67 357 0.9 7.8 0.00 0.00 0.00 72 1010.0
20260506125334 67 340 2.6 7.8 0.00 0.00 0.00 72 1010.2
20260506124311 67 133 0.9 7.8 0.00 0.00 0.00 72 1009.9
20260506123322 67 35 0.9 8.7 0.00 0.00 0.00 73 1009.9
20260506122319 67 135 1.7 9.6 0.00 0.00 0.00 74 1009.8
20260506121315 66 328 0.9 7.0 0.00 0.00 0.00 75 1009.8
20260506120333 66 5 1.7 7.0 0.00 0.00 0.00 75 1009.8
20260506115328 65 144 1.7 7.0 0.00 0.00 0.00 77 1009.8
20260506114347 65 323 0.9 6.1 0.00 0.00 0.00 78 1009.7
20260506113316 64 225 0.9 10.4 0.00 0.00 0.00 78 1009.8
20260506112313 64 193 0.9 6.1 0.00 0.00 0.00 79 1009.8
20260506111310 64 328 1.7 5.2 0.00 0.00 0.00 79 1009.8
20260506110311 64 130 1.7 7.8 0.00 0.00 0.00 80 1009.8
20260506105344 64 313 0.9 7.0 0.00 0.00 0.00 80 1009.7
20260506104323 64 27 0.9 3.5 0.00 0.00 0.00 81 1009.7
20260506103318 64 318 0.9 7.8 0.00 0.00 0.00 81 1009.6
20260506102315 63 122 0.0 6.1 0.00 0.00 0.00 81 1009.7
20260506101315 63 352 0.9 7.0 0.00 0.00 0.00 82 1009.6
20260506100311 63 354 0.9 8.7 0.00 0.00 0.00 82 1009.7
20260506095310 63 143 0.0 5.2 0.00 0.00 0.00 81 1009.8
20260506094330 63 77 0.9 4.3 0.00 0.00 0.00 81 1009.7
20260506093313 64 148 2.6 5.2 0.00 0.00 0.00 81 1009.6
20260506092332 64 131 0.0 4.3 0.00 0.00 0.00 80 1009.6
20260506091347 64 236 1.7 6.1 0.00 0.00 0.00 80 1009.6
20260506090322 64 324 0.0 4.3 0.00 0.00 0.00 79 1009.7
20260506085324 65 9 0.9 10.4 0.00 0.00 0.00 79 1009.8
20260506084326 65 150 0.0 3.5 0.00 0.00 0.00 80 1009.7
20260506083346 64 106 0.0 4.3 0.00 0.00 0.00 80 1009.8
20260506082322 64 114 0.9 7.0 0.00 0.00 0.00 80 1009.9
20260506081316 64 13 0.0 4.3 0.00 0.00 0.00 80 1010.0
20260506080320 64 127 0.9 5.2 0.00 0.00 0.00 80 1010.0
20260506073317 65 118 1.7 4.3 0.00 0.00 0.00 79 1009.9
20260506072318 65 158 0.9 4.3 0.00 0.00 0.00 79 1010.0
20260506071319 65 110 0.9 5.2 0.00 0.00 0.00 78 1009.9
20260506070312 65 284 0.9 7.0 0.00 0.00 0.00 78 1010.0
20260506062345 66 125 0.0 3.5 0.00 0.00 0.00 77 1010.3
20260506061351 66 41 0.0 1.7 0.00 0.00 0.00 76 1010.2
20260506060325 66 54 0.0 1.7 0.00 0.00 0.00 76 1010.3
20260506051332 67 105 0.0 4.3 0.00 0.00 0.00 72 1010.6
20260506050331 67 158 0.9 4.3 0.00 0.00 0.00 72 1010.7
20260506044325 67 139 0.0 5.2 0.00 0.00 0.00 71 1010.9
20260506043325 67 147 1.7 6.1 0.00 0.00 0.00 70 1010.8
20260506042325 67 157 0.9 4.3 0.00 0.00 0.00 69 1010.8
20260506041317 68 287 1.7 3.5 0.00 0.00 0.00 69 1010.9
20260506040318 68 136 0.0 5.2 0.00 0.00 0.00 68 1010.7
20260506035311 68 183 0.9 6.1 0.00 0.00 0.00 67 1010.8
20260506034340 68 317 0.9 4.3 0.00 0.00 0.00 67 1010.7
20260506033313 68 122 0.9 8.7 0.00 0.00 0.00 66 1010.6
20260506032317 69 311 0.9 4.3 0.00 0.00 0.00 65 1010.6
20260506031311 69 147 2.6 7.8 0.00 0.00 0.00 64 1010.7
20260506030311 69 125 0.9 6.1 0.00 0.00 0.00 63 1010.7
20260506025313 69 136 0.9 5.2 0.00 0.00 0.00 63 1010.8
20260506024333 69 1 0.9 5.2 0.00 0.00 0.00 63 1010.8
20260506023311 69 146 0.9 3.5 0.00 0.00 0.00 62 1010.8
20260506022319 69 136 1.7 7.8 0.00 0.00 0.00 62 1010.8
20260506021315 70 66 0.9 5.2 0.00 0.00 0.00 61 1010.8
20260506020340 70 143 0.0 2.6 0.00 0.00 0.00 60 1010.8
20260506015321 71 190 1.7 7.8 0.00 0.00 0.00 59 1010.7
20260506014325 71 192 0.9 4.3 0.00 0.00 0.00 57 1010.7
20260506013322 72 148 2.6 5.2 0.00 0.00 0.00 55 1010.5
20260506012325 72 103 1.7 7.8 0.00 0.00 0.00 53 1010.4
20260506011348 72 160 1.7 7.8 0.00 0.00 0.00 52 1010.3
20260506010324 73 129 0.0 5.2 0.00 0.00 0.00 51 1010.2
20260506005324 73 116 0.0 6.1 0.00 0.00 0.00 49 1010.0
20260506004309 74 141 0.0 4.3 0.00 0.00 0.00 46 1010.0
20260506003321 75 2 0.9 5.2 0.00 0.00 0.00 44 1009.9
20260506002352 75 348 0.0 6.1 0.00 0.00 0.00 44 1009.7
20260506001353 76 273 0.0 4.3 0.00 0.00 0.00 43 1009.6
20260506000309 76 183 1.7 6.1 0.00 0.00 0.00 43 1009.5
20260505235309 76 178 0.9 7.0 0.00 0.00 0.00 42 1009.4
20260505234326 77 129 1.7 7.0 0.00 0.00 0.00 42 1009.4
20260505233308 77 321 0.9 7.8 0.00 0.00 0.00 43 1009.4
20260505232330 77 321 0.9 5.2 0.00 0.00 0.00 43 1009.2
20260505231311 77 3 0.0 5.2 0.00 0.00 0.00 43 1009.1
20260505230308 78 301 0.9 6.1 0.00 0.00 0.00 42 1009.1
20260505225326 78 146 2.6 6.1 0.00 0.00 0.00 41 1009.1
20260505224325 78 316 0.9 9.6 0.00 0.00 0.00 41 1009.1
20260505223319 79 326 0.9 11.3 0.00 0.00 0.00 41 1009.1
20260505222320 80 152 1.7 11.3 0.00 0.00 0.00 39 1008.9
20260505221321 80 158 0.9 8.7 0.00 0.00 0.00 37 1009.1
20260505220324 80 267 3.5 13.0 0.00 0.00 0.00 36 1009.0
20260505215318 81 118 1.7 10.4 0.00 0.00 0.00 36 1009.0
20260505214323 81 289 3.5 12.2 0.00 0.00 0.00 34 1008.7
20260505213325 82 214 0.9 12.2 0.00 0.00 0.00 33 1008.8
20260505212328 82 326 2.6 11.3 0.00 0.00 0.00 32 1008.9